TimeEST,TemperatureF,Dew PointF,Humidity,Sea Level PressureIn,VisibilityMPH,Wind Direction,Wind SpeedMPH,Gust SpeedMPH,PrecipitationIn,Events,Conditions,WindDirDegrees,DateUTC
12:53 AM,32.0,18.0,56,30.12,10.0,West,6.9,-,N/A,,Clear,270,2013-01-05 05:53:00
1:53 AM,30.9,18.0,59,30.14,10.0,WNW,9.2,-,N/A,,Clear,290,2013-01-05 06:53:00
2:53 AM,30.9,17.1,57,30.17,10.0,West,6.9,-,N/A,,Clear,280,2013-01-05 07:53:00
3:53 AM,30.0,17.1,59,30.20,10.0,WNW,5.8,-,N/A,,Clear,290,2013-01-05 08:53:00
4:53 AM,27.0,17.1,66,30.24,10.0,WNW,5.8,-,N/A,,Clear,300,2013-01-05 09:53:00
5:53 AM,27.0,17.1,66,30.28,10.0,WNW,3.5,-,N/A,,Clear,290,2013-01-05 10:53:00
6:53 AM,24.1,17.1,75,30.30,10.0,WNW,3.5,-,N/A,,Clear,290,2013-01-05 11:53:00
7:53 AM,23.0,17.1,78,30.34,10.0,Calm,Calm,-,N/A,,Clear,0,2013-01-05 12:53:00
8:53 AM,30.9,19.0,61,30.34,10.0,NW,9.2,-,N/A,,Clear,310,2013-01-05 13:53:00
9:53 AM,33.1,19.9,59,30.38,10.0,WNW,9.2,-,N/A,,Clear,300,2013-01-05 14:53:00
10:53 AM,35.1,19.0,52,30.35,-9999.0,North,10.4,-,N/A,,Unknown,360,2013-01-05 15:53:00
11:53 AM,36.0,19.9,52,30.35,10.0,WNW,8.1,-,N/A,,Clear,300,2013-01-05 16:53:00
12:53 PM,36.0,19.9,52,30.33,10.0,NNW,3.5,-,N/A,,Clear,330,2013-01-05 17:53:00
1:53 PM,37.0,21.0,52,30.30,10.0,NW,6.9,-,N/A,,Clear,310,2013-01-05 18:53:00
2:53 PM,37.9,21.0,51,30.29,10.0,Variable,3.5,-,N/A,,Clear,0,2013-01-05 19:53:00
3:53 PM,37.0,21.0,52,30.29,10.0,Calm,Calm,-,N/A,,Clear,0,2013-01-05 20:53:00
4:53 PM,35.1,21.0,57,30.30,10.0,Calm,Calm,-,N/A,,Clear,0,2013-01-05 21:53:00
5:53 PM,28.0,21.0,75,30.30,10.0,Calm,Calm,-,N/A,,Clear,0,2013-01-05 22:53:00
6:53 PM,28.0,21.0,75,30.28,10.0,Calm,Calm,-,N/A,,Clear,0,2013-01-05 23:53:00
7:53 PM,26.1,21.0,81,30.28,10.0,Calm,Calm,-,N/A,,Clear,0,2013-01-06 00:53:00
8:53 PM,28.0,21.9,78,30.23,9.0,Calm,Calm,-,N/A,,Clear,0,2013-01-06 01:53:00
9:53 PM,30.0,23.0,75,30.24,9.0,Calm,Calm,-,N/A,,Clear,0,2013-01-06 02:53:00
10:53 PM,33.1,21.9,64,30.23,10.0,SSW,5.8,-,N/A,,Overcast,200,2013-01-06 03:53:00
11:53 PM,33.1,24.1,70,30.20,10.0,Calm,Calm,-,N/A,,Overcast,0,2013-01-06 04:53:00